Location: ??? ???
(33.4974°N, 35.4618°E)
Time: 12:37:17
(UTC+00:00)

USA 305 - Pass Details

Date: 29 October 2020
Orbit: 569 x 577 km, 54.0° (Epoch: 22 November)

Event Time Altitude Azimuth Distance (km) Brightness Sun altitude
Rises 16:16:45 0° 328° (NNW) 2,780 6.8 -18.9°
Reaches altitude 10° 16:19:24 10° 343° (NNW) 1,878 5.7 -19.4°
Enters shadow 16:21:58 22° 18° (NNE) 1,285 4.5 -20.0°
